Regional Weather Roundup
Issued by NWS

Current Version | Previous Version | Text Only | Print | Product List | Glossary On
Versions: 1 2 3 4 5 6 7 8 9 10 11 12 13 14 15 16 17 18 19 20 21 22 23 24 25 26 27
000
ASUS44 KBMX 301210
RWRAL

ALABAMA REGIONAL WEATHER ROUNDUP
NATIONAL WEATHER SERVICE BIRMINGHAM AL
700 AM CDT FRI SEP 30 2022

NOTE: "FAIR" INDICATES FEW OR NO CLOUDS BELOW 12,000 FEET
WITH NO SIGNIFICANT WEATHER AND/OR OBSTRUCTIONS TO VISIBILITY.

THE REMARK "TC" DENOTES TEMPERATURE IN DEGREES CELSIUS.

ALZ001>011-014-016>018-020-301300-
NORTH ALABAMA

CITY           SKY/WX    TMP DP  RH WIND       PRES   REMARKS
MUSCLE SHOALS  CLEAR     49  47  93 CALM      30.11R
6HR MIN TEMP:  49; 6HR MAX TEMP:  60;

HUNTSVILLE     CLEAR     49  47  93 N6        30.09R
6HR MIN TEMP:  49; 6HR MAX TEMP:  57;

DECATUR        CLEAR     47  45  93 N3        30.10S
6HR MIN TEMP:  46; 6HR MAX TEMP:  55;

HALEYVILLE     FAIR      47  45  93 N3        30.12R
6HR MIN TEMP:  47; 6HR MAX TEMP:  55;

GADSDEN        PTCLDY    48  46  93 CALM      30.07R
6HR MIN TEMP:  43; 6HR MAX TEMP:  50;

$$

ALZ012-013-022-023-030>036-040>044-301300-
WEST CENTRAL ALABAMA

CITY           SKY/WX    TMP DP  RH WIND       PRES   REMARKS
TUSCALOOSA     NOT AVBL
DEMOPOLIS      FAIR      50  48  92 CALM      30.05R
6HR MIN TEMP:  47; 6HR MAX TEMP:  51;

$$

ALZ015-024>026-033>036-041>044-301300-
CENTRAL ALABAMA

CITY           SKY/WX    TMP DP  RH WIND       PRES   REMARKS
BIRMINGHAM     CLEAR     50  46  86 CALM      30.08R
6HR MIN TEMP:  49; 6HR MAX TEMP:  52;

MONTGOMERY     CLOUDY    58  48  69 NW6       30.00R
6HR MIN TEMP:  55; 6HR MAX TEMP:  59;

SHELBY CO ARPT NOT AVBL
MAXWELL AFB    CLOUDY    59  43  56 N7        29.98R
6HR MIN TEMP:  55; 6HR MAX TEMP:  59;

GREENVILLE       N/A     52  47  83 N6        29.98
6HR MIN TEMP:  51; 6HR MAX TEMP:  56;

SELMA          FAIR      48  45  87 CALM      30.02R
PRATTVILLE     CLOUDY    56  47  73 W3        30.00R
6HR MIN TEMP:  52; 6HR MAX TEMP:  61;

BESSEMER       FAIR      51  47  86 N6        30.06R
6HR MIN TEMP:  50; 6HR MAX TEMP:  57;

TALLADEGA      FAIR      54  49  83 N3        30.05S
6HR MIN TEMP:  46; 6HR MAX TEMP:  55;

PELL CITY      PTCLDY    52  48  87 CALM      30.05S
SYLACAUGA      FAIR      53  48  83 NE3       30.04S
6HR MIN TEMP:  48; 6HR MAX TEMP:  54;

$$

ALZ019-021-028-029-037-038-045>048-301300-
EAST CENTRAL ALABAMA

CITY           SKY/WX    TMP DP  RH WIND       PRES   REMARKS
ANNISTON       CLEAR     50  46  86 CALM      30.04R
6HR MIN TEMP:  46; 6HR MAX TEMP:  55;

ALEXANDER CITY MOCLDY    58  46  62 N8        30.01R
6HR MIN TEMP:  56; 6HR MAX TEMP:  59;

AUBURN         CLOUDY    59  47  64 N10       29.99R
6HR MIN TEMP:  55; 6HR MAX TEMP:  59;

$$

ALZ051>064-301300-
SOUTHWEST ALABAMA

CITY           SKY/WX    TMP DP  RH WIND       PRES   REMARKS
MOBILE         MOCLDY    58  45  62 N6        30.00R
6HR MIN TEMP:  55; 6HR MAX TEMP:  61;

BROOKLEY FIELD MOCLDY    59  46  62 N9        30.01R
6HR MIN TEMP:  55; 6HR MAX TEMP:  63;

EVERGREEN      CLOUDY    55  47  74 NW5       29.99R
6HR MIN TEMP:  53; 6HR MAX TEMP:  60;

$$

ALZ049-050-065>069-301300-
SOUTHEAST ALABAMA

CITY           SKY/WX    TMP DP  RH WIND       PRES   REMARKS
DOTHAN         CLEAR     58  47  66 N7        29.96S
6HR MIN TEMP:  58; 6HR MAX TEMP:  66;

OZARK          CLEAR     58  47  65 N8        29.93R
6HR MIN TEMP:  58; 6HR MAX TEMP:  66;

TROY           NOT AVBL
EUFAULA        CLOUDY    61  49  64 N5        29.96R
6HR MIN TEMP:  59; 6HR MAX TEMP:  66;

$$



USA.gov is the U.S. government's official web portal to all federal, state and local government web resources and services.